Terminal Aerodrome Forecast
Issued by NWS Tallahassee, FL

Home | Current Version | Previous Version | Text Only | Print | Product List | Glossary On
Versions: 1 2 3 4 5 6 7 8 9 10 11 12 13 14 15 16 17 18
465
FTUS42 KTAE 191603 AAA
TAFTLH
TAF AMD
KTLH 191603Z 1916/2012 VRB04KT 3/4SM BR VV002
     FM191700 18005KT P6SM BKN035
     FM200300 16005KT 3SM BR BKN007
     FM200600 18004KT 2SM TSRA BR OVC025CB=

USA.gov is the U.S. government's official web portal to all federal, state and local government web resources and services.